ATLAS 5 CENTAUR DEB, 44674

Orbit data source: Space-Track

ATLAS 5 CENTAUR DEB, 44674 is space debris in HEO originally from a launch on Wed, 17 Oct 2018 UTC launched from the Air Force Eastern Test Range (AFETR). Debris objects in space refer to the collection of defunct objects orbiting the Earth. Examples of debris include non-operational satellites, rocket bodies, and fragments generated from explosions, collisions, or faulty payload assembly.

Loading next visibility...
Identifier
44674, 2018-079AL
Orbit
HEO
Country
Flag of USUS
Related business
Flag of USUnited Launch Alliance/Lockheed Martin (US)
Manufacturer
ULA Decatur
Mission
Spacecraft
Bus & Motor
Unknown
Mass
Unknown
Launch date (UTC)
2018-10-17 (8 years ago)
Launch vehicle
Unknown
Launch site
Air Force Eastern Test Range (AFETR)
Object type
Payload
Rocket body
Debris
Shape & HBR
Unknown shape, 1.1 m
Radar Cross Section
Medium (>0.1 m² and <1 m²)

Expand to show TLE details & history
Last TLE update: 3 days ago

TLE from 3 days ago
0 ATLAS 5 CENTAUR DEB
1 44674U 18079AL  26170.91899553 -.00000114  00000-0  00000+0 0  9991
2 44674  13.0401  35.2195 4416282 338.1679   7.7497  1.93836521 49594
Epoch: 2026-06-19T22:03Z
TLE epoch observation values (Epoch: 2026-06-19T22:03:21.213Z)
Latitude
0.00008°
Longitude
156.22947°
Altitude
9,155.635 km
Speed
6.054 km/s
True Right ascension
02h 20m 50s
True Declination
0° 00' 00"
Sunlit
Object was in daylight at epoch
Visualization orbit readout
Latitude
Unknown
Longitude
Unknown
Altitude
Unknown
Speed
Unknown
Apparent Right ascension
Unknown
Apparent Declination
Unknown
Sunlit
N/A
Visualization observer readout
Local Sidereal Time
21:39:00
Azimuth
Unknown
Elevation
Unknown
Doppler factor
Unknown
Orbital elements
Apogee altitude
32,795.88 km
Perigee altitude
8,794.753 km
Semi-major axis
27,173.453 km
Eccentricity
0.44163
Inclination
13.0401°
RAAN
35.2195°
Arg. of periapsis
338.1679°
True anomaly
21.96708°
Mean anomaly
7.7497°
Eccentric anomaly
13.77446°
Mean motion
0.48454 °/min
Orbital period
742.98 mins
BSTAR
0
Loading maneuver chart data...
Computing Atmospheric mass density...

Documentation

Showing up to 5 results
|